Time,TemperatureF,DewpointF,PressureIn,WindDirection,WindDirectionDegrees,WindSpeedMPH,WindSpeedGustMPH,Humidity,HourlyPrecipIn,Conditions,Clouds,dailyrainin,SoftwareType,DateUTC
2013-01-27 00:01:00,23.0,19.0,30.32,North,0,0.0,0.0,84,62.78,,,-99.99,,2013-01-27 06:01:00,
2013-01-27 00:11:00,23.0,19.0,30.32,North,0,0.0,0.0,84,62.78,,,-99.99,,2013-01-27 06:11:00,
2013-01-27 00:21:00,23.0,19.0,30.32,North,0,0.0,0.0,85,62.78,,,-99.99,,2013-01-27 06:21:00,
2013-01-27 00:31:00,22.0,18.0,30.31,North,0,0.0,0.0,86,62.78,,,-99.99,,2013-01-27 06:31:00,
2013-01-27 00:41:00,22.0,18.0,30.31,North,0,0.0,0.0,86,62.78,,,-99.99,,2013-01-27 06:41:00,
2013-01-27 00:52:00,22.0,18.0,30.31,North,0,0.0,0.0,86,62.78,,,-99.99,,2013-01-27 06:52:00,
2013-01-27 01:01:00,22.0,19.0,30.31,North,0,0.0,0.0,87,62.78,,,-99.99,,2013-01-27 07:01:00,
2013-01-27 01:13:00,22.0,19.0,30.31,North,0,0.0,0.0,87,62.78,,,-99.99,,2013-01-27 07:13:00,
2013-01-27 01:21:00,22.0,19.0,30.31,North,0,0.0,0.0,87,62.78,,,-99.99,,2013-01-27 07:21:00,
2013-01-27 01:31:00,22.0,19.0,30.31,ESE,117,0.0,0.0,87,62.78,,,-99.99,,2013-01-27 07:31:00,
2013-01-27 01:41:00,22.0,19.0,30.31,ESE,117,0.0,0.0,87,62.78,,,-99.99,,2013-01-27 07:41:00,
2013-01-27 01:52:00,22.0,19.0,30.31,North,0,0.0,0.0,87,62.78,,,-99.99,,2013-01-27 07:52:00,
2013-01-27 02:01:00,21.0,18.0,30.32,North,0,0.0,0.0,87,62.78,,,-99.99,,2013-01-27 08:01:00,
2013-01-27 02:11:00,21.0,18.0,30.32,North,0,0.0,0.0,87,62.78,,,-99.99,,2013-01-27 08:11:00,
2013-01-27 02:22:00,21.0,18.0,30.32,North,0,0.0,0.0,88,62.78,,,-99.99,,2013-01-27 08:22:00,
2013-01-27 02:31:00,20.0,17.0,30.31,North,0,0.0,0.0,89,62.78,,,-99.99,,2013-01-27 08:31:00,
2013-01-27 02:42:00,20.0,17.0,30.31,North,0,0.0,0.0,89,62.78,,,-99.99,,2013-01-27 08:42:00,
2013-01-27 02:52:00,21.0,19.0,30.31,North,0,0.0,0.0,90,62.78,,,-99.99,,2013-01-27 08:52:00,
2013-01-27 03:02:00,21.0,18.0,30.30,North,0,0.0,0.0,89,62.78,,,-99.99,,2013-01-27 09:02:00,
2013-01-27 03:11:00,21.0,18.0,30.30,North,0,0.0,0.0,89,62.78,,,-99.99,,2013-01-27 09:11:00,
2013-01-27 03:21:00,21.0,18.0,30.29,North,0,0.0,0.0,89,62.78,,,-99.99,,2013-01-27 09:21:00,
2013-01-27 03:32:00,22.0,19.0,30.29,North,0,0.0,0.0,89,62.78,,,-99.99,,2013-01-27 09:32:00,
2013-01-27 03:41:00,22.0,19.0,30.29,North,0,0.0,0.0,89,62.78,,,-99.99,,2013-01-27 09:41:00,
2013-01-27 03:52:00,22.0,19.0,30.29,South,183,0.0,2.0,89,62.78,,,-99.99,,2013-01-27 09:52:00,
2013-01-27 04:01:00,22.0,19.0,30.28,North,0,0.0,0.0,89,62.78,,,-99.99,,2013-01-27 10:01:00,
2013-01-27 04:11:00,21.0,19.0,30.28,North,0,0.0,0.0,90,62.78,,,-99.99,,2013-01-27 10:11:00,
2013-01-27 04:21:00,21.0,19.0,30.28,North,0,0.0,0.0,90,62.78,,,-99.99,,2013-01-27 10:21:00,
2013-01-27 04:31:00,21.0,19.0,30.28,North,0,0.0,0.0,90,62.78,,,-99.99,,2013-01-27 10:31:00,
2013-01-27 04:41:00,21.0,19.0,30.28,North,0,0.0,0.0,90,62.78,,,-99.99,,2013-01-27 10:41:00,
2013-01-27 04:52:00,22.0,20.0,30.29,North,0,0.0,0.0,90,62.78,,,-99.99,,2013-01-27 10:52:00,
2013-01-27 05:01:00,22.0,19.0,30.28,North,0,0.0,0.0,89,62.78,,,-99.99,,2013-01-27 11:01:00,
2013-01-27 05:11:00,22.0,20.0,30.29,North,0,0.0,0.0,90,62.78,,,-99.99,,2013-01-27 11:11:00,
2013-01-27 05:21:00,22.0,20.0,30.29,North,0,0.0,0.0,90,62.78,,,-99.99,,2013-01-27 11:21:00,
2013-01-27 05:32:00,22.0,19.0,30.29,North,0,0.0,0.0,89,62.78,,,-99.99,,2013-01-27 11:32:00,
2013-01-27 05:42:00,22.0,19.0,30.29,North,0,0.0,0.0,89,62.78,,,-99.99,,2013-01-27 11:42:00,
2013-01-27 05:52:00,22.0,19.0,30.28,SW,231,1.0,4.0,89,62.78,,,-99.99,,2013-01-27 11:52:00,
2013-01-27 06:02:00,23.0,20.0,30.27,South,169,1.0,5.0,89,62.78,,,-99.99,,2013-01-27 12:02:00,
2013-01-27 06:11:00,23.0,20.0,30.27,South,169,1.0,5.0,89,62.78,,,-99.99,,2013-01-27 12:11:00,
2013-01-27 06:21:00,23.0,20.0,30.27,SSE,159,0.0,2.0,88,62.78,,,-99.99,,2013-01-27 12:21:00,
2013-01-27 06:32:00,23.0,20.0,30.27,South,191,1.0,4.0,88,62.78,,,-99.99,,2013-01-27 12:32:00,
2013-01-27 06:42:00,23.0,20.0,30.27,South,191,1.0,4.0,88,62.78,,,-99.99,,2013-01-27 12:42:00,
2013-01-27 06:52:00,24.0,21.0,30.27,SW,214,2.0,6.0,87,62.78,,,-99.99,,2013-01-27 12:52:00,
2013-01-27 07:02:00,24.0,21.0,30.26,WSW,248,2.0,5.0,87,62.78,,,-99.99,,2013-01-27 13:02:00,
2013-01-27 07:11:00,24.0,21.0,30.26,WSW,248,2.0,5.0,87,62.78,,,-99.99,,2013-01-27 13:11:00,
2013-01-27 07:22:00,24.0,21.0,30.28,SW,235,1.0,3.0,87,62.78,,,-99.99,,2013-01-27 13:22:00,
2013-01-27 07:32:00,25.0,22.0,30.28,SW,224,0.0,4.0,87,62.78,,,-99.99,,2013-01-27 13:32:00,
2013-01-27 07:42:00,25.0,22.0,30.29,SSE,165,0.0,3.0,87,62.78,,,-99.99,,2013-01-27 13:42:00,
2013-01-27 07:52:00,25.0,22.0,30.29,SSE,165,0.0,3.0,87,62.78,,,-99.99,,2013-01-27 13:52:00,
2013-01-27 08:02:00,25.0,22.0,30.29,South,173,1.0,4.0,87,62.78,,,-99.99,,2013-01-27 14:02:00,
2013-01-27 08:11:00,25.0,22.0,30.29,South,173,1.0,4.0,87,62.78,,,-99.99,,2013-01-27 14:11:00,
2013-01-27 08:22:00,26.0,23.0,30.28,SW,217,1.0,6.0,87,62.78,,,-99.99,,2013-01-27 14:22:00,
2013-01-27 08:32:00,26.0,22.0,30.28,South,186,1.0,4.0,86,62.78,,,-99.99,,2013-01-27 14:32:00,
2013-01-27 08:42:00,26.0,22.0,30.28,South,186,1.0,4.0,86,62.78,,,-99.99,,2013-01-27 14:42:00,
2013-01-27 08:52:00,27.0,23.0,30.27,South,183,1.0,6.0,84,62.78,,,-99.99,,2013-01-27 14:52:00,
2013-01-27 09:02:00,27.0,23.0,30.27,ESE,117,1.0,4.0,84,62.78,,,-99.99,,2013-01-27 15:02:00,
2013-01-27 09:11:00,27.0,23.0,30.27,ESE,117,1.0,4.0,84,62.78,,,-99.99,,2013-01-27 15:11:00,
2013-01-27 09:22:00,28.0,24.0,30.28,West,281,1.0,5.0,84,62.78,,,-99.99,,2013-01-27 15:22:00,
2013-01-27 09:32:00,29.0,24.0,30.29,SSE,159,1.0,5.0,82,62.78,,,-99.99,,2013-01-27 15:32:00,
2013-01-27 09:42:00,29.0,24.0,30.29,SSE,159,1.0,5.0,82,62.78,,,-99.99,,2013-01-27 15:42:00,
2013-01-27 09:53:00,27.0,23.0,30.30,SSW,198,1.0,4.0,83,62.78,,,-99.99,,2013-01-27 15:53:00,
2013-01-27 10:02:00,29.0,25.0,30.30,SW,224,2.0,9.0,83,62.78,,,-99.99,,2013-01-27 16:02:00,
2013-01-27 10:11:00,29.0,25.0,30.30,SW,224,2.0,9.0,83,62.78,,,-99.99,,2013-01-27 16:11:00,
2013-01-27 10:21:00,31.0,26.0,30.29,West,264,2.0,6.0,81,62.78,,,-99.99,,2013-01-27 16:21:00,
2013-01-27 10:32:00,32.0,27.0,30.28,SSW,211,3.0,6.0,80,62.78,,,-99.99,,2013-01-27 16:32:00,
2013-01-27 10:42:00,32.0,27.0,30.28,SSW,211,3.0,6.0,80,62.78,,,-99.99,,2013-01-27 16:42:00,
2013-01-27 10:53:00,32.0,27.0,30.27,SSW,197,1.0,5.0,80,62.78,,,-99.99,,2013-01-27 16:53:00,
2013-01-27 11:01:00,32.0,27.0,30.27,SSW,205,2.0,7.0,80,62.78,,,-99.99,,2013-01-27 17:01:00,
2013-01-27 11:12:00,32.0,27.0,30.27,SSW,205,2.0,7.0,80,62.78,,,-99.99,,2013-01-27 17:12:00,
2013-01-27 11:22:00,33.0,27.0,30.26,WSW,238,1.0,5.0,78,62.78,,,-99.99,,2013-01-27 17:22:00,
2013-01-27 11:32:00,33.0,27.0,30.26,SW,215,1.0,6.0,77,62.78,,,-99.99,,2013-01-27 17:32:00,
2013-01-27 11:42:00,33.0,27.0,30.26,SW,215,1.0,6.0,77,62.78,,,-99.99,,2013-01-27 17:42:00,
2013-01-27 11:52:00,33.0,27.0,30.24,SSW,210,1.0,5.0,78,62.78,,,-99.99,,2013-01-27 17:52:00,
2013-01-27 12:02:00,33.0,27.0,30.22,SSW,208,1.0,5.0,78,62.78,,,-99.99,,2013-01-27 18:02:00,
2013-01-27 12:11:00,33.0,27.0,30.22,SSW,208,1.0,5.0,78,62.78,,,-99.99,,2013-01-27 18:11:00,
2013-01-27 12:22:00,34.0,28.0,30.22,SSW,211,1.0,5.0,78,62.78,,,-99.99,,2013-01-27 18:22:00,
2013-01-27 12:32:00,34.0,27.0,30.19,South,183,2.0,7.0,76,62.78,,,-99.99,,2013-01-27 18:32:00,
2013-01-27 12:42:00,34.0,27.0,30.19,South,183,2.0,7.0,76,62.78,,,-99.99,,2013-01-27 18:42:00,
2013-01-27 12:52:00,34.0,27.0,30.19,South,183,2.0,7.0,76,62.78,,,-99.99,,2013-01-27 18:52:00,
2013-01-27 13:02:00,34.0,28.0,30.16,NNW,333,2.0,5.0,77,62.79,,,-99.99,,2013-01-27 19:02:00,
2013-01-27 13:11:00,34.0,28.0,30.16,NNW,333,2.0,5.0,77,62.79,,,-99.99,,2013-01-27 19:11:00,
2013-01-27 13:22:00,34.0,27.0,30.16,SSW,204,3.0,7.0,76,62.79,,,-99.99,,2013-01-27 19:22:00,
2013-01-27 13:32:00,35.0,29.0,30.14,SE,138,1.0,5.0,77,62.79,,,-99.99,,2013-01-27 19:32:00,
2013-01-27 13:42:00,35.0,29.0,30.14,SE,138,1.0,5.0,77,62.79,,,-99.99,,2013-01-27 19:42:00,
2013-01-27 13:51:00,35.0,29.0,30.14,SE,146,1.0,5.0,78,62.79,,,-99.99,,2013-01-27 19:51:00,
2013-01-27 14:02:00,35.0,29.0,30.13,SSW,211,1.0,5.0,78,62.79,,,-99.99,,2013-01-27 20:02:00,
2013-01-27 14:11:00,35.0,29.0,30.13,SSW,211,1.0,5.0,78,62.79,,,-99.99,,2013-01-27 20:11:00,
2013-01-27 14:22:00,35.0,29.0,30.11,SSW,212,2.0,6.0,77,62.79,,,-99.99,,2013-01-27 20:22:00,
2013-01-27 14:32:00,35.0,29.0,30.10,SW,232,2.0,7.0,80,62.79,,,-99.99,,2013-01-27 20:32:00,
2013-01-27 14:42:00,35.0,29.0,30.10,SW,232,2.0,7.0,80,62.79,,,-99.99,,2013-01-27 20:42:00,
2013-01-27 14:52:00,35.0,29.0,30.10,SW,235,1.0,5.0,78,62.79,,,-99.99,,2013-01-27 20:52:00,
2013-01-27 15:02:00,35.0,29.0,30.09,SSW,205,3.0,8.0,77,62.79,,,-99.99,,2013-01-27 21:02:00,
2013-01-27 15:12:00,35.0,29.0,30.09,SSW,205,3.0,8.0,77,62.79,,,-99.99,,2013-01-27 21:12:00,
2013-01-27 15:22:00,35.0,30.0,30.08,East,97,2.0,6.0,83,62.79,,,-99.99,,2013-01-27 21:22:00,
2013-01-27 15:32:00,35.0,31.0,30.08,South,179,2.0,8.0,84,62.80,,,-99.99,,2013-01-27 21:32:00,
2013-01-27 15:42:00,35.0,31.0,30.08,South,179,2.0,8.0,84,62.80,,,-99.99,,2013-01-27 21:42:00,
2013-01-27 15:52:00,35.0,32.0,30.09,SSW,195,2.0,7.0,88,62.80,,,-99.99,,2013-01-27 21:52:00,
2013-01-27 16:02:00,34.0,31.0,30.08,NNW,336,2.0,10.0,90,62.81,,,-99.99,,2013-01-27 22:02:00,
2013-01-27 16:11:00,34.0,31.0,30.08,NNW,336,2.0,10.0,90,62.81,,,-99.99,,2013-01-27 22:11:00,
2013-01-27 16:22:00,34.0,32.0,30.08,South,174,3.0,7.0,94,62.82,,,-99.99,,2013-01-27 22:22:00,
2013-01-27 16:32:00,34.0,33.0,30.09,SW,225,2.0,6.0,95,62.82,,,-99.99,,2013-01-27 22:32:00,
2013-01-27 16:42:00,34.0,33.0,30.09,SW,225,2.0,6.0,95,62.82,,,-99.99,,2013-01-27 22:42:00,
2013-01-27 16:52:00,34.0,33.0,30.09,SW,218,1.0,10.0,96,62.82,,,-99.99,,2013-01-27 22:52:00,
2013-01-27 17:02:00,34.0,33.0,30.08,WSW,240,3.0,8.0,96,62.82,,,-99.99,,2013-01-27 23:02:00,
2013-01-27 17:12:00,34.0,33.0,30.08,WSW,240,3.0,8.0,96,62.82,,,-99.99,,2013-01-27 23:12:00,
2013-01-27 17:21:00,34.0,33.0,30.08,SW,233,3.0,8.0,96,62.83,,,-99.99,,2013-01-27 23:21:00,
2013-01-27 17:32:00,34.0,33.0,30.07,South,188,2.0,8.0,97,62.83,,,-99.99,,2013-01-27 23:32:00,
2013-01-27 17:41:00,34.0,33.0,30.07,South,188,2.0,8.0,97,62.83,,,-99.99,,2013-01-27 23:41:00,
2013-01-27 17:53:00,34.0,34.0,30.06,SSW,204,4.0,8.0,98,62.85,,,-99.99,,2013-01-27 23:53:00,
2013-01-27 18:01:00,34.0,34.0,30.04,SSW,207,3.0,11.0,98,62.86,,,-99.99,,2013-01-28 00:01:00,
2013-01-27 18:11:00,34.0,34.0,30.04,SSW,207,3.0,11.0,98,62.86,,,-99.99,,2013-01-28 00:11:00,
2013-01-27 18:21:00,34.0,34.0,30.04,SW,228,4.0,8.0,99,62.86,,,-99.99,,2013-01-28 00:21:00,
2013-01-27 18:32:00,34.0,34.0,30.03,SSW,198,4.0,9.0,99,62.86,,,-99.99,,2013-01-28 00:32:00,
2013-01-27 18:42:00,34.0,34.0,30.03,SSW,198,4.0,9.0,99,62.86,,,-99.99,,2013-01-28 00:42:00,
2013-01-27 18:51:00,35.0,35.0,30.03,South,181,4.0,10.0,99,62.86,,,-99.99,,2013-01-28 00:51:00,
2013-01-27 19:01:00,35.0,35.0,30.02,West,264,4.0,10.0,99,62.86,,,-99.99,,2013-01-28 01:01:00,
2013-01-27 19:11:00,35.0,35.0,30.02,West,264,4.0,10.0,99,62.86,,,-99.99,,2013-01-28 01:11:00,
2013-01-27 19:22:00,35.0,35.0,30.01,SSW,194,5.0,12.0,99,62.86,,,-99.99,,2013-01-28 01:22:00,
2013-01-27 19:32:00,36.0,36.0,30.01,West,262,5.0,11.0,99,62.86,,,-99.99,,2013-01-28 01:32:00,
2013-01-27 19:42:00,36.0,36.0,30.01,West,262,5.0,11.0,99,62.86,,,-99.99,,2013-01-28 01:42:00,
2013-01-27 19:52:00,36.0,36.0,30.00,SSW,197,4.0,12.0,99,62.86,,,-99.99,,2013-01-28 01:52:00,
2013-01-27 20:02:00,36.0,36.0,29.98,South,186,4.0,10.0,99,62.86,,,-99.99,,2013-01-28 02:02:00,
2013-01-27 20:11:00,36.0,36.0,29.98,South,186,4.0,10.0,99,62.86,,,-99.99,,2013-01-28 02:11:00,
2013-01-27 20:22:00,36.0,36.0,29.98,SW,218,4.0,10.0,99,62.86,,,-99.99,,2013-01-28 02:22:00,
2013-01-27 20:32:00,36.0,36.0,29.98,WNW,297,3.0,7.0,99,62.86,,,-99.99,,2013-01-28 02:32:00,
2013-01-27 20:42:00,36.0,36.0,29.98,WNW,297,3.0,7.0,99,62.86,,,-99.99,,2013-01-28 02:42:00,
2013-01-27 20:52:00,36.0,36.0,29.97,WSW,239,3.0,9.0,100,62.86,,,-99.99,,2013-01-28 02:52:00,
2013-01-27 21:02:00,37.0,37.0,29.97,SSW,204,3.0,7.0,100,62.86,,,-99.99,,2013-01-28 03:02:00,
2013-01-27 21:11:00,37.0,37.0,29.97,SSW,204,3.0,7.0,100,62.86,,,-99.99,,2013-01-28 03:11:00,
2013-01-27 21:21:00,37.0,37.0,29.97,SSW,211,1.0,4.0,100,62.86,,,-99.99,,2013-01-28 03:21:00,
2013-01-27 21:32:00,38.0,38.0,29.96,SSW,208,2.0,7.0,100,62.86,,,-99.99,,2013-01-28 03:32:00,
2013-01-27 21:41:00,38.0,38.0,29.96,SSW,208,2.0,7.0,100,62.86,,,-99.99,,2013-01-28 03:41:00,
2013-01-27 21:53:00,38.0,38.0,29.98,SW,226,2.0,6.0,100,62.86,,,-99.99,,2013-01-28 03:53:00,
2013-01-27 22:01:00,39.0,39.0,29.98,SW,226,3.0,9.0,100,62.86,,,-99.99,,2013-01-28 04:01:00,
2013-01-27 22:11:00,39.0,39.0,29.98,SW,226,3.0,9.0,100,62.86,,,-99.99,,2013-01-28 04:11:00,
2013-01-27 22:21:00,39.0,39.0,29.98,WNW,302,3.0,8.0,100,62.86,,,-99.99,,2013-01-28 04:21:00,
2013-01-27 22:32:00,39.0,39.0,29.99,WSW,238,3.0,9.0,100,62.86,,,-99.99,,2013-01-28 04:32:00,
2013-01-27 22:41:00,39.0,39.0,29.99,WSW,238,3.0,9.0,100,62.86,,,-99.99,,2013-01-28 04:41:00,
2013-01-27 22:52:00,39.0,39.0,29.98,WSW,238,3.0,9.0,100,62.86,,,-99.99,,2013-01-28 04:52:00,
2013-01-27 23:03:00,39.0,39.0,29.98,WSW,243,2.0,10.0,100,62.86,,,-99.99,,2013-01-28 05:03:00,
2013-01-27 23:11:00,39.0,39.0,29.98,WSW,243,2.0,10.0,100,62.86,,,-99.99,,2013-01-28 05:11:00,
2013-01-27 23:21:00,40.0,40.0,29.98,South,187,2.0,6.0,100,62.86,,,-99.99,,2013-01-28 05:21:00,
2013-01-27 23:31:00,40.0,40.0,29.96,SSE,155,4.0,13.0,100,62.86,,,-99.99,,2013-01-28 05:31:00,
2013-01-27 23:41:00,40.0,40.0,29.96,SSE,155,4.0,13.0,100,62.86,,,-99.99,,2013-01-28 05:41:00,
2013-01-27 23:52:00,41.0,41.0,29.95,West,278,4.0,9.0,100,62.86,,,-99.99,,2013-01-28 05:52:00,